www.pogodaiklimat.ru

Погода и климат >> Архив погоды >> Китай >> город Чунцин >> Фэнцзе


ПОГОДА в Фэнцзе

  • Прогноз погоды в Фэнцзе
  • Монитор погоды в Фэнцзе

АРХИВ ПОГОДЫ в Фэнцзе

Время (UTC), дата Ветер
(напр.,м/с)
 
Видим.   Явления Облачность Т
(С)
Тd
(С)
f
(%)
Тe
(С)
Тes
(С)
Комфортность P
(гПа)
Po
(гПа)
Тmin
(С)
Tmax
(С)
R
(мм)
R24
(мм)
S
(см)
00 13.09 В 4 19 км ясно +26.3 +20.8 72 +33 +34 очень
душно
1008.4 974.1
03 13.09 В 3 19 км 3/3 600 м
[]
+33.1 +20.6 48 +40 +48 очень
душно
1007.7 974.2
06 13.09 В 3 27 км 3/3 600 м
[]
+38.0 +19.4 34 +43 +52 опасность
перегрева
1004.3 971.4 +25.1
09 13.09 В 1 21 км 1/1 600 м
[]
+39.5 +17.6 28 +42 +46 опасность
перегрева
1002.8 970.1
12 13.09 С 1 28 км ясно +35.0 +17.7 36 +39 +39 очень
душно
1004.9 971.7
18 13.09 СВ 5 30 км ?/? +30.1 +19.8 54 +36 +36 очень
душно
1008.1 974.3 +40.2
21 13.09 С 4 30 км н/о +29.0 +19.6 57 +35 +35 очень
душно
1008.5 974.5
00 14.09 С 3 26 км 10/10 2000 м
[]
+28.6 +19.0 56 +34 +34 очень
душно
1010.7 976.6
03 14.09 В 2 22 км {дождь} 9/9
[]
+30.7 +21.2 57 +38 +40 очень
душно
1010.5 976.6
06 14.09 В 2 19 км {дождь} 10/10
[]
+32.6 +21.1 51 +40 +40 очень
душно
1007.9 974.3 +26.3
09 14.09 В 1 19 км 9/9
[]
+32.8 +20.0 47 +39 +39 очень
душно
1006.3 972.8
12 14.09 ЮЗ 4 15 км 10/10
[]
+29.1 +20.5 60 +36 +36 очень
душно
1008.7 974.7
18 14.09 Ю 1 13 км ?/? +25.9 +20.2 71 +32 +32 очень
душно
1009.9 975.5 +33.5
21 14.09 Ю 1 8000 м н/о +24.7 +20.2 76 +30 +30 очень
душно
1009.8 975.3
00 15.09 Ю 3 7000 м слаб. дождь 10/10
[]
+25.1 +20.1 74 +31 +31 очень
душно
1011.3 976.8
03 15.09 ЮЗ 4 10 км 10/10
[]
+25.2 +20.2 74 +31 +31 очень
душно
1012.1 977.6
06 15.09 Ю 5 15 км 9/9
[]
+27.9 +19.7 61 +34 +35 очень
душно
1009.8 975.7 +24.5
09 15.09 ЮЗ 2 19 км 10/10
[]
+24.9 +19.1 70 +30 +30 душно 1010.4 975.9
12 15.09 Ю 1 30 км {дождь} 10/10
[]
+24.0 +18.9 73 +29 +29 душно 1011.9 977.2
18 15.09 Ю 2 27 км ?/? +22.6 +18.6 78 +28 +28 душно 1012.7 977.9 +28.0
21 15.09 Ю 2 20 км н/о +22.5 +18.9 80 +28 +28 душно 1013.0 978.1
00 16.09 В 2 6000 м слаб. дождь 10/10
[]
+20.8 +19.8 94 +26 +26 душно 1014.4 979.3 0.1
03 16.09 В 2 18 км {дождь} 10/10
[]
+21.7 +19.1 85 +27 +27 душно 1014.6 979.6
06 16.09 В 2 30 км {дождь} 10/10
[]
+22.1 +18.9 82 +27 +27 душно 1012.7 977.8 +20.5 0.2
09 16.09 ЮВ 1 8000 м слаб. дождь 10/10
[]
+22.0 +19.6 86 +28 +28 душно 1011.9 977.0
12 16.09 С 1 21 км {дождь} 10/10 1500 м
[]
+21.4 +19.5 89 +26 +26 душно 1012.0 977.4 0.3
18 16.09 С 2 25 км ?/? +21.5 +19.8 90 +27 +27 душно 1012.9 977.9 +22.7
21 16.09 СВ 2 28 км н/о +21.6 +19.7 89 +27 +27 душно 1012.5 977.5
00 17.09 В 2 26 км 9/9 1500 м
[]
+22.9 +19.1 79 +29 +29 очень
душно
1013.2 978.4
03 17.09 В 2 30 км 10/10 2000 м
[]
+25.4 +18.1 64 +30 +30 душно 1014.0 979.4
06 17.09 В 1 24 км 10/10 2000 м
[]
+27.0 +18.3 59 +32 +32 очень
душно
1012.6 978.3 +21.3
09 17.09 С 1 8000 м слаб. дождь 10/10 1000 м
[]
+23.1 +18.4 75 +29 +29 очень
душно
1014.1 979.3
12 17.09 В 3 11 км слаб. дождь 10/10 1500 м
[]
+19.7 +18.4 92 +23 +23 комфорт 1017.3 982.0 2
18 17.09 В 2 11 км слаб. дождь ?/? +18.7 +17.2 91 +20 +20 1018.7 983.2 +28.2 2
21 17.09 СВ 2 8000 м слаб. дождь н/о +18.7 +18.0 96 +20 +20 1019.3 983.8
00 18.09 С 3 25 км слаб. дождь 10/10 1500 м
[]
+19.1 +17.4 90 +21 +21 комфорт 1021.2 985.7 2
03 18.09 В 3 30 км в посл. час дождь 10/10 1500 м
[]
+19.2 +17.9 92 +21 +21 комфорт 1022.3 986.7
06 18.09 С 1 30 км слаб. дождь 10/10 1500 м
[]
+20.5 +16.9 80 +25 +25 комфорт 1020.7 985.3 +18.6 1
09 18.09 З 1 18 км слаб. дождь 10/10 1500 м
[]
+19.8 +17.9 89 +24 +24 комфорт 1020.2 984.8
12 18.09 С 1 12 км {дождь} 10/10
[]
+19.9 +18.0 89 +24 +24 комфорт 1020.6 985.2 0.9
18 18.09 С 2 30 км ?/? +20.4 +15.4 73 +24 +24 комфорт 1020.2 984.8 +21.2
21 18.09 З 1 30 км н/о +20.0 +16.6 81 +24 +24 комфорт 1020.0 984.6
00 19.09 В 1 30 км 10/10
[]
+20.1 +16.3 79 +24 +24 комфорт 1020.7 985.3
03 19.09 СВ 3 1100 м дымка 10/10
[]
+22.4 +15.0 63 +26 +26 жарко 1020.0 984.9
06 19.09 З 1 28 км 10/10
[]
+23.6 +16.6 65 +27 +27 жарко 1017.6 982.7 +19.6
09 19.09 В 2 22 км 10/10
[]
+22.1 +16.2 69 +26 +26 душно 1017.2 982.1
12 19.09 СВ 3 22 км 10/10
[]
+21.2 +16.0 72 +25 +25 комфорт 1017.9 982.7
18 19.09 В 2 4000 м слаб. дождь ?/? +18.4 +17.2 93 +20 +20 1018.6 983.8 +23.7 3
21 19.09 СВ 1 2600 м слаб. дождь н/о +18.3 +17.8 97 +20 +20 1018.4 982.9

 

Местоположение метеостанции Фэнцзе (город Чунцин, Китай): широта 31.02 долгота 109.53 высота над уровнем моря 303 м.

В архиве по умолчанию представлена погода в Фэнцзе за последнюю неделю. Архивные данные за месяц целиком и за предыдущие месяцы, начиная с января 2011 года, Вы можете получить, выбрав интересующий диапазон дат из раскрывающегося списка и нажав кнопку "Ввод!".


*Определитесь, кто Вы:
робот инопланетянин человек

Внимание! Время в таблицах - всемирное. Для получения местного времени необходимо прибавить поправку, которая равна 8 ч.

Смотрите также архив погоды в соседних городах и на ближайших метеорологических станциях:

Погода в Эньши (Хубэй, Китай) (83 км)
Погода в Фансяне (Хубэй, Китай) (162 км)
Погода в Лянпине (город Чунцин, Китай) (169 км)
Погода в Ичане (Хубэй, Китай) (173 км)
Погода в Ваньюане (Сычуань, Китай) (184 км)
Погода в Санчжи (Хунань, Китай) (190 км)
Погода в Тунчуане (Шэньси, Китай) (194 км)
Погода в Анькане (Шэньси, Китай) (195 км)
Погода в Гуахуа (Хубэй, Китай) (252 км)
Погода в Юяне (город Чунцин, Китай) (255 км)

Пояснения к столбцам:

Ветер - указаны скорость ветра в м/с - средняя за 10 мин, порывы в срок и между сроками (в фигурных скобках) и направление, откуда дует ветер: С - северный, СВ - северо-восточный, В - восточный, ЮВ - юго-восточный, Ю - южный, ЮЗ - юго-западный, З - западный, СЗ - северо-западный.
Видимость - горизонтальная дальность видимости в метрах или километрах. При видимости от 1 до 10 км при отсутствии осадков обычно наблюдается дымка, при ухудшении видимости до 1 км и менее - туман. В сухую погоду видимость может ухудшаться дымом, пылью или мглою.
Явления - указаны атмосферные явления, наблюдавшиеся в срок или в последний час перед сроком; фигурными скобками обозначены явления, наблюдавшиеся между сроками (за 1-3 часа до срока); квадратными скобками обозначены град или гололедные отложения с указанием их диаметра в мм.
Облачность - указаны через наклонную черту общая и нижняя облачность в баллах и высота нижней границы облаков в метрах; квадратными скобками обозначены формы облаков: Ci - перистые, Cs - перисто-слоистые, Cc - перисто-кучевые, Ac - высококучевые, As - высокослоистые, Sc - слоисто-кучевые, Ns - слоисто-дождевые, Cu - кучевые, Cb - кучево-дождевые. Подробнее классификацию облаков см. в Атласе облаков (PDF).
T - Температура воздуха - температура, измеренная на высоте 2 м над землей.
Td - Температура точки росы - температура, при понижении до которой содержащийся в воздухе водяной пар достигнет насыщения.
f - Относительная влажность воздуха - влажноcть воздуха, измеренная на высоте 2 м над землей.
Te - Эффективная температура - температура, которую ощущает одетый по сезону человек в тени. Характеристика душности погоды. При расчете учитывается влияние влажности воздуха и скорости ветра на теплоощущения человека.
Tes - Эффективная температура на солнце - температура, которую ощущает человек, с поправкой на солнечный нагрев. Характеристика знойности погоды. Зависит от высоты солнца над горизонтом, облачности и скорости ветра. Ночью, в пасмурную погоду, а также при ветре 12 м/с и более поправка равна нулю.
P - Атмосферное давление - приведенное к уровню моря атмосферное давление.
Po - Атмосферное давление - измеренное на уровне метеостанции атмосферное давление.
Tmin - Минимальная температура - минимум температуры воздуха на высоте 2 м над землей.
Tmax - Максимальная температура - максимум температуры воздуха на высоте 2 м над землей.
R - Количество осадков - Количество выпавших осадков за период времени, мм. При наведении курсора мыши на число - период времени, за который выпало указанное количество осадков.
R24 - Количество осадков - Количество выпавших осадков за 24 часа, мм.
S - Снежный покров - Высота снежного покрова, см. При наведении курсора мыши на число - состояние снежного покрова и степень покрытия местности в баллах.